Location: Apeadero de Los Molinos-Guadarrama
(40.7091°N, 4.0689°W)
Time: 13:13:36
(UTC+00:00)

Cosmos 1707 Rocket - Pass Details

Date: 14 May 2021
Orbit: 605 x 631 km, 82.5° (Epoch: 18 June)

Event Time Altitude Azimuth Distance (km) Brightness Sun altitude
Exits shadow 21:45:44 34° 77° (ENE) 1,021 4.4 -21.4°
Drops below altitude 10° 21:49:18 10° 26° (NNE) 1,996 6.5 -21.8°
Sets 21:51:40 0° 17° (NNE) 2,911 7.5 -22.0°
